Terminal Aerodrome Forecast
Issued by NWS

Current Version | Previous Version | Text Only | Print | Product List | Glossary On
Versions: 1 2 3 4 5 6 7 8 9 10 11 12 13 14 15 16 17 18
000
FTUS45 KABQ 201700
TAFROW
TAF
KROW 201736Z 2018/2118 02005KT P6SM BKN030
     FM202300 15007KT P6SM VCSH BKN050
     FM210100 19006KT P6SM -RA OVC040
     FM211000 VRB04KT P6SM OVC030
     FM211500 23005KT P6SM -SHRA OVC025=

USA.gov is the U.S. government's official web portal to all federal, state and local government web resources and services.